Regional Weather Roundup
Issued by NWS

Home | Current Version | Previous Version | Text Only | Print | Product List | Glossary Off
Versions: 1 2 3 4 5 6 7 8 9 10 11 12 13 14 15 16 17 18 19 20 21 22 23 24 25 26 27 28 29 30 31 32 33 34 35 36 37 38 39 40 41 42 43 44 45 46 47 48 49 50

000
ASUS43 KTOP 262359
RWRKS

WEATHER ROUNDUP FOR KANSAS
NATIONAL WEATHER SERVICE GOODLAND KS
600 PM CST WED NOV 26 2014

NOTE:  "FAIR" INDICATES FEW OR NO CLOUDS BELOW 12,000 FEET WITH NO
SIGNIFICANT WEATHER AND/OR OBSTRUCTIONS TO VISIBILITY.

KSZ001>006-013>018-027>032-041>047-270100-
NORTHWEST KANSAS

CITY           SKY/WX    TMP DP  RH WIND       PRES   REMARKS
GOODLAND       MOCLDY    29  23  78 NE7       30.31S
6HR MIN TEMP:  29; 6HR MAX TEMP:  39;

HAYS           CLOUDY    37  16  41 N12       30.35R WCI  30
HILL CITY      CLOUDY    37  18  46 NW5       30.35R
6HR MIN TEMP:  37; 6HR MAX TEMP:  40;

RUSSELL        CLOUDY    36  20  52 N13       30.33R WCI  27
6HR MIN TEMP:  36; 6HR MAX TEMP:  41;

$$

KSZ061>065-074>080-084>089-270100-
SOUTHWEST KANSAS

CITY           SKY/WX    TMP DP  RH WIND       PRES   REMARKS
DODGE CITY     PTCLDY    34  15  46 N7        30.34R
6HR MIN TEMP:  34; 6HR MAX TEMP:  48;

ELKHART          N/A     39  18  43 NE7         N/A
GARDEN CITY    CLEAR     34  17  50 NE9       30.33R
6HR MIN TEMP:  34; 6HR MAX TEMP:  45;

GREAT BEND     CLOUDY    37  18  44 N8        30.36R
LIBERAL        PTCLDY    41  18  38 NE8       30.34R
$$

KSZ066>073-081>083-090>101-270100-
SOUTHEAST KANSAS

CITY           SKY/WX    TMP DP  RH WIND       PRES   REMARKS
CHANUTE        CLOUDY    38  26  62 NW18G26   30.27R WCI  28
6HR MIN TEMP:  37; 6HR MAX TEMP:  48;

COFFEYVILLE    PTCLDY    41  26  55 NW17      30.27R
6HR MIN TEMP:  41; 6HR MAX TEMP:  52;

HUTCHINSON     CLOUDY    39  21  48 NW14G21   30.34R WCI  31
6HR MIN TEMP:  39; 6HR MAX TEMP:  46;

MEDICINE LODGE   N/A     40  21  46 N14       30.32R WCI  32
NEWTON         MOCLDY    36  19  51 NW13      30.34R WCI  27
PARSONS        CLEAR     39  26  59 NW15G25   30.27R WCI  31
6HR MIN TEMP:  39; 6HR MAX TEMP:  51;

WICHITA INTL   MOCLDY    40  22  48 NW15      30.32R WCI  32
6HR MIN TEMP:  40; 6HR MAX TEMP:  49;

WICHITA JABRA  CLOUDY    37  23  56 NW12      30.31R WCI  29
6HR MIN TEMP:  37; 6HR MAX TEMP:  47;

WINFIELD       MOCLDY    41  25  53 NW20      30.31R
6HR MIN TEMP:  40; 6HR MAX TEMP:  51;

$$

KSZ007>012-019>026-033>040-048>060-102>105-270100-
NORTHEAST KANSAS

CITY           SKY/WX    TMP DP  RH WIND       PRES   REMARKS
CONCORDIA      PTCLDY    31  21  66 N14       30.35R WCI  21
6HR MIN TEMP:  31; 6HR MAX TEMP:  37;

EMPORIA        CLEAR     33  23  66 NW17      30.28R WCI  22
6HR MIN TEMP:  32; 6HR MAX TEMP:  46;

LAWRENCE       CLOUDY    32  23  69 NW20G28   30.26R WCI  20
6HR MIN TEMP:  32; 6HR MAX TEMP:  41;

MANHATTAN      PTCLDY    33  22  63 NW7       30.32R
6HR MIN TEMP:  33; 6HR MAX TEMP:  39;

OLATHE IND     CLOUDY    32  23  69 NW17G31   30.21R WCI  21
6HR MIN TEMP:  32; 6HR MAX TEMP:  44;

OLATHE EXE     CLOUDY    32  24  72 NW24G36   30.19R WCI  19
6HR MIN TEMP:  32; 6HR MAX TEMP:  42;

SALINA         CLEAR     35  21  56 N14       30.35R WCI  26
6HR MIN TEMP:  35; 6HR MAX TEMP:  45;

TOPEKA BILLARD CLOUDY    34  23  64 NW16G24   30.28R WCI  24
6HR MIN TEMP:  34; 6HR MAX TEMP:  43;

TOPEKA FORBES  CLOUDY    34  23  64 NW21G31   30.26R WCI  22
6HR MIN TEMP:  34; 6HR MAX TEMP:  45;

$$



USA.gov is the U.S. government's official web portal to all federal, state and local government web resources and services.